OBJECT E, 64880

Orbit data source: Space-Track

You're viewing an Uncataloged Satellite

Recently launched and/or uncataloged satellites may have evolving metadata. Metadata may include but not limited to: Owner, Maufacturer, Bus, Motor, and Mission.

OBJECT E, 64880 is a satellite in SSO that was launched on Fri, 25 Jul 2025 UTC via a SOYUZ-2-1B launch vehicle from the Vostochny Cosmodrome (VOSTO). Unknown objects in Earth's orbit typically refer to objects detected orbiting the Earth but have not yet been identified or cataloged. These objects could be anything from previously untracked satellites, spent rocket stages, debris from satellite collisions, or even natural meteoroids temporarily captured by Earth's gravity.

Loading next visibility...
Identifier
64880, 2025-155E
Orbit
SSO
Country
Flag of TBDTBD
Related business
Flag of RUGeoscan (RU)
Manufacturer
SPUT/GEOSK
Mission
Operational Commercial Imaging
Bus & Motor
CUBESAT 3U, Unknown motor
Mass
3 kg wet, 3 kg dry
Launch date (UTC)
2025-07-25 (11 months ago)
Launch vehicle
SOYUZ-2-1B
Launch site
Vostochny Cosmodrome (VOSTO)
Object type
Unknown
Shape & HBR
Box, 1.1 m
Radar Cross Section
0.035 m², Medium (>0.1 m² and < 1m²)

Expand to show TLE details & history
Last TLE update: 11 hours ago

TLE from 11 hours ago
0 OBJECT E
1 64880U 25155E   26171.38708490  .00009677  00000-0  32727-3 0  9993
2 64880  97.4556 140.1018 0008742 152.1627 208.0084 15.30802172 81262
Epoch: 2026-06-20T09:17Z
TLE epoch observation values (Epoch: 2026-06-20T09:17:24.135Z)
Latitude
0.00006°
Longitude
92.14879°
Altitude
481.812 km
Speed
7.622 km/s
True Right ascension
09h 20m 24s
True Declination
0° 00' 00"
Sunlit
Object was in daylight at epoch
Visualization orbit readout
Latitude
Unknown
Longitude
Unknown
Altitude
Unknown
Speed
Unknown
Apparent Right ascension
Unknown
Apparent Declination
Unknown
Sunlit
N/A
Visualization observer readout
Local Sidereal Time
07:20:32
Azimuth
Unknown
Elevation
Unknown
Doppler factor
Unknown
Orbital elements
Apogee altitude
476.358 km
Perigee altitude
464.384 km
Semi-major axis
6,848.508 km
Eccentricity
0.00087
Inclination
97.4556°
RAAN
140.1018°
Arg. of periapsis
152.1627°
True anomaly
207.9614°
Mean anomaly
208.0084°
Eccentric anomaly
207.9849°
Mean motion
3.82956 °/min
Orbital period
94.01 mins
BSTAR
0.00032727
Loading maneuver chart data...
Computing Atmospheric mass density...
Loading historical data...
Loading historical data...
Loading historical data...
Loading historical data...
Loading historical data...
Loading historical data...
Loading historical data...

Documentation

Showing up to 5 results
|